Simultaneous Nadir Overpasses (SNOs) Predictions

Prediction of SNOs between GOES-16 and METOP-C Satellite Orbit:

Table of predicted SNOs for the next 14.0 days since TLE Epoch: 11/19/2022
Index Date Time (GOES-16) GOES-16 Lat,Lon METOP-C Lat,Lon Distance(km) Time Diff (sec)
1 11/19/2022 14:41:20 -0.05, -75.20 0.45, -77.35 245.74 80
2 11/20/2022 14:18:02 -0.05, -75.21 -0.71, -72.37 323.95 80
3 11/22/2022 02:39:41 0.05, -75.19 -0.33, -76.95 200.28 80
4 11/23/2022 02:16:22 0.05, -75.20 0.77, -71.96 369.50 80
5 11/24/2022 14:37:55 -0.04, -75.23 0.24, -76.52 147.44 80
6 11/25/2022 14:14:36 -0.04, -75.23 -0.86, -71.52 422.39 80
7 11/27/2022 02:36:15 0.03, -75.22 -0.16, -76.11 101.56 80
8 11/28/2022 02:12:55 0.03, -75.23 0.94, -71.12 468.49 80
9 11/29/2022 14:31:49 -0.02, -75.26 0.06, -75.68 47.77 80
10 12/02/2022 02:30:08 0.02, -75.28 0.03, -75.28 1.18 80
